www.pogodaiklimat.ru

Погода и климат >> Архив погоды >> Португалия >> Фуншал


ПОГОДА в Фуншале

  • Прогноз погоды в Фуншале
  • Монитор погоды в Фуншале

АРХИВ ПОГОДЫ в Фуншале

Время (UTC), дата Ветер
(напр.,м/с)
 
Видим.   Явления Облачность Т
(С)
Тd
(С)
f
(%)
Тe
(С)
Тes
(С)
Комфортность P
(гПа)
Po
(гПа)
Тmin
(С)
Tmax
(С)
R
(мм)
R24
(мм)
S
(см)
07 14.07 н/о н/о +21.5 +15.0 66 1020.2 1013.4
08 14.07 штиль 0 н/о н/о +23.7 +15.8 61 +27 +27 жарко 1020.4 1013.7
09 14.07 С 1 н/о н/о +23.8 +16.7 64 +27 +27 жарко 1020.9 1014.2
10 14.07 н/о н/о +24.4 +17.0 63 1021.3 1014.6
11 14.07 н/о н/о +24.9 +17.2 62 1021.4 1014.7
12 14.07 С 1 н/о н/о +24.8 +17.6 64 +29 +29 душно 1021.3 1014.5
13 14.07 С 1 н/о н/о +24.5 +17.7 66 +29 +29 душно 1021.0 1014.3
14 14.07 н/о н/о +24.8 +18.1 66 1020.5 1013.8
15 14.07 С 2 н/о н/о +24.8 +18.2 67 +29 +29 душно 1020.5 1013.8
16 14.07 н/о н/о +24.9 +18.1 66 1020.3 1013.6
17 14.07 С 2 н/о н/о +24.0 +18.0 69 +28 +28 душно 1020.1 1013.4
18 14.07 нст 2
{5}
н/о н/о +23.6 +18.1 71 +28 +28 душно 1019.9 1013.1 +25.8
19 14.07 н/о н/о +23.3 +18.1 73 1020.2 1013.5
20 14.07 н/о н/о +23.1 +18.1 73 1020.5 1013.7
21 14.07 С 1 н/о н/о +22.9 +18.0 74 +28 +28 душно 1020.7 1013.9
22 14.07 С 1 н/о н/о +22.9 +18.1 74 +28 +28 душно 1021.0 1014.3
23 14.07 штиль 0 н/о н/о +22.5 +18.0 76 +28 +28 душно 1021.0 1014.2
00 15.07 штиль 0 н/о н/о +22.9 +17.8 73 +28 +28 душно 1021.0 1014.2
01 15.07 н/о н/о +22.7 +18.1 75 1020.5 1013.8
02 15.07 С 1 н/о н/о +22.5 +17.8 75 +28 +28 душно 1019.9 1013.2
03 15.07 С 2 н/о н/о +22.4 +17.3 73 +27 +27 душно 1019.4 1012.6
04 15.07 З 1 н/о н/о +22.4 +17.4 73 +27 +27 душно 1019.1 1012.3
05 15.07 н/о н/о +22.3 +16.3 69 1019.1 1012.4
06 15.07 нст 1 н/о н/о +22.4 +16.0 67 +27 +27 душно 1019.3 1002.2 +22.2
07 15.07 С 1 н/о н/о +22.5 +15.6 65 +26 +26 жарко 1019.6 1012.8
08 15.07 н/о н/о +23.7 +16.4 64 1019.7 1013.0
09 15.07 нст 1 20 км 8/4 600 м
[St Ac trans]
+24.2 +16.9 64 +28 +30 душно 1030.1 1013.2
10 15.07 н/о н/о +25.1 +16.8 60 1020.2 1013.5
11 15.07 С 1 н/о н/о +24.4 +16.9 63 +28 +28 душно 1020.3 1013.5
12 15.07 нст 2 20 км 9/8 600 м
[St Ac trans]
+25.1 +17.6 63 +29 +31 душно 1030.1 1013.8
13 15.07 н/о н/о +24.8 +18.0 66 1020.5 1013.8
14 15.07
{5}
20 км 9/9 600 м
[Cu Sc]
+24.7 +18.2 67 1020.4 1013.7
15 15.07 нст 2
{5}
20 км 9/8 300 м
[St Ac trans]
+24.3 +17.8 67 +28 +30 душно 1020.3 1013.6
16 15.07
{6}
20 км 9/9 540 м
[Cu Sc]
+24.1 +17.7 67 1020.1 1013.4
17 15.07 20 км 9/9 540 м
[Cu Sc]
+24.1 +18.0 69 1019.7 1013.0
18 15.07 нст 2 20 км 9/9 600 м
[]
+23.8 +17.8 69 +28 +28 душно 1030.1 1012.8 +25.4
19 15.07 С 1 н/о н/о +23.1 +17.3 70 +28 +28 душно 1019.4 1012.6
20 15.07 С 1 н/о н/о +22.7 +17.2 71 +28 +28 душно 1019.7 1013.0
21 15.07 С 1 н/о н/о +22.2 +17.2 73 +27 +27 душно 1020.0 1013.3
22 15.07 н/о н/о +22.0 +16.6 71 1020.3 1013.5
23 15.07 н/о н/о +21.8 +16.2 70 1020.4 1013.6
00 16.07 С 1 н/о н/о +21.8 +16.5 72 +26 +26 душно 1020.6 1013.8
01 16.07 штиль 0 н/о н/о +21.6 +16.6 73 +25 +25 комфорт 1020.2 1013.4
02 16.07 штиль 0 н/о н/о +20.9 +16.4 75 +24 +24 комфорт 1019.7 1012.9
03 16.07 С 1 н/о н/о +20.9 +16.4 75 +26 +26 душно 1019.3 1012.5
04 16.07 С 1 н/о н/о +20.5 +15.8 74 +25 +25 комфорт 1019.0 1012.2
05 16.07 С 1 н/о н/о +20.3 +15.5 74 +24 +24 комфорт 1019.0 1012.2
06 16.07 С 1 н/о н/о +20.3 -50.2 74 +24 +24 комфорт 1019.5 1001.7 +20.2
07 16.07 н/о н/о +20.3 +15.5 74 1019.7 1012.9
08 16.07 штиль 0 н/о н/о +22.2 +15.9 67 +26 +26 душно 1020.1 1013.3
09 16.07 нст 1 18 км 4/4 600 м
[]
+23.0 +16.2 66 +28 +33 душно 1030.1 1013.2
10 16.07 н/о н/о +24.9 +16.6 60 1020.4 1013.7
11 16.07
{5}
н/о н/о +24.5 +16.7 62 1020.8 1014.0
12 16.07 нст 2 18 км 3/3 600 м
[Cu hum]
+25.1 +17.4 62 +29 +43 душно 1030.1 1014.1
13 16.07
{5}
н/о н/о +25.7 +17.5 61 1020.7 1013.9
14 16.07 С 2
{5}
20 км 3/3 750 м
[Cu Sc]
+26.3 +17.5 58 +30 +45 душно 1020.5 1013.8
15 16.07 нст 2
{5}
20 км 4/4 600 м
[]
+24.8 +17.5 64 +29 +39 душно 1020.5 1013.7
16 16.07 20 км 5/5 700 м
[Cu Sc]
+24.6 +17.3 64 1020.5 1013.7
17 16.07 20 км 6/6 700 м
[Cu Sc]
+23.9 +17.2 66 1020.5 1013.8
18 16.07 ЮЗ 2 20 км 5/5 700 м
[]
+24.0 +17.4 67 +28 +30 душно 1030.1 1013.4 +26.8
19 16.07 н/о н/о +23.2 +17.5 70 1020.4 1013.7
20 16.07 н/о н/о +22.8 +17.7 73 1020.8 1014.0
21 16.07 С 1 н/о н/о +22.6 +17.9 75 +28 +28 душно 1021.3 1014.5
22 16.07 С 1
{5}
н/о н/о +22.5 +17.9 75 +28 +28 душно 1021.7 1014.9
23 16.07 С 2
{5}
н/о н/о +22.4 +17.7 75 +27 +27 душно 1022.1 1015.3
00 17.07 С 1 н/о н/о +22.3 +17.5 74 +27 +27 душно 1022.2 1015.4
01 17.07 н/о н/о +22.3 +17.6 75 1021.9 1015.1
02 17.07 н/о н/о +22.0 +17.0 73 1021.4 1014.6
03 17.07 нст 1
{5}
н/о н/о +21.9 +16.8 73 +26 +26 душно 1021.0 1014.2
04 17.07 н/о н/о +21.8 +16.4 71 1021.0 1014.2
05 17.07 штиль 0 н/о н/о +21.3 +15.9 71 +25 +25 комфорт 1021.0 1014.2
06 17.07 СВ 1 н/о н/о +20.9 +15.0 69 +25 +25 комфорт 1021.5 1001.8 +20.7
07 17.07 СВ 1 н/о н/о +21.1 +14.8 67 +24 +24 комфорт 1021.9 1015.1
08 17.07 н/о н/о +23.0 +15.3 62 1022.3 1015.6
09 17.07 нст 1 18 км 1/1 600 м
[]
+23.5 +14.9 58 +26 +34 жарко 1030.1 1016.0
10 17.07 н/о н/о +23.9 +15.9 61 1023.0 1016.3
11 17.07 С 2
{5}
н/о н/о +25.2 +16.7 59 +29 +29 душно 1023.2 1016.5
12 17.07 нст 2-5
{5}
18 км 6/6 600 м
[Cu Sc]
+25.0 +16.3 58 +28 +36 жарко 1030.1 1016.5
13 17.07
{5}
н/о н/о +25.6 +16.8 58 1023.3 1016.6
14 17.07 18 км 6/6 750 м
[Cu Sc]
+25.8 +16.2 55 1023.0 1016.2
15 17.07 нст 3 18 км 4/4 600 м
[]
+26.6 +16.2 53 +30 +39 душно 1022.6 1015.9
16 17.07 С 2-5
{5}
18 км 4/4 600 м
[Cu Sc]
+26.3 +15.9 53 +30 +37 душно 1022.6 1015.9
17 17.07 С 2
{5}
18 км 4/4 750 м
[Cu Sc]
+25.5 +16.1 56 +29 +34 душно 1022.7 1015.9
18 17.07 нст 2
{6}
18 км 4/4 750 м
[]
+24.2 +16.3 61 +28 +30 душно 1040.2 1015.5 +26.7
19 17.07 С 1 н/о н/о +23.1 +16.0 64 +28 +28 душно 1022.4 1015.6
20 17.07 С 1 н/о н/о +22.3 +15.8 67 +26 +26 жарко 1022.6 1015.8
21 17.07 С 1 н/о н/о +22.3 +15.5 65 +26 +26 жарко 1022.7 1015.9
22 17.07 С 1 н/о н/о +21.8 +15.1 66 +25 +25 комфорт 1023.4 1016.6
23 17.07 С 1 н/о н/о +21.6 +14.3 63 +25 +25 комфорт 1023.7 1016.9
00 18.07 С 1 н/о н/о +21.1 +13.7 63 +24 +24 комфорт 1023.6 1016.8
01 18.07 СВ 1 н/о н/о +20.7 +13.4 63 +24 +24 комфорт 1023.2 1016.4
02 18.07 СВ 1 н/о н/о +20.3 +13.0 63 +24 +24 комфорт 1022.6 1015.7
03 18.07 С 1 н/о н/о +20.3 +13.3 64 +24 +24 комфорт 1021.8 1015.0
04 18.07 СВ 1 н/о н/о +19.9 +13.1 65 +23 +23 комфорт 1021.4 1014.6
05 18.07 н/о н/о +19.5 +13.2 67 1021.2 1014.4
06 18.07 нст 1 н/о н/о +19.4 +13.0 66 +22 +22 комфорт 1021.5 1001.7 +19.3
07 18.07 СВ 1 н/о н/о +19.6 +13.7 69 +22 +22 комфорт 1021.6 1014.7
08 18.07 штиль 0 н/о н/о +22.5 +14.6 61 +26 +26 жарко 1021.8 1015.0
09 18.07 нст 1 18 км 1/1 600 м
[]
+22.6 +14.5 60 1030.1 1015.3
10 18.07 ЮЗ 2 н/о н/о +24.3 +15.7 59 +27 +27 жарко 1022.1 1015.3
11 18.07 С 2
{5}
н/о н/о +24.2 +15.4 58 +27 +27 жарко 1021.9 1015.2
12 18.07 нст 2
{5}
18 км 3/3 600 м
[Cu hum]
+24.6 +15.6 57 +28 +42 душно 1030.1 1015.2
13 18.07 С 2-6
{6}
н/о н/о +25.0 +15.9 57 +28 +28 жарко 1021.8 1015.1
14 18.07
{6}
18 км 3/3 750 м
[Cu hum]
+26.1 +16.5 55 1021.6 1014.9
15 18.07 нст 2
{5}
18 км 3/3 600 м
[]
+25.2 +16.5 59 +29 +41 душно 1020.9 1014.2
16 18.07 18 км 3/3 750 м
[Cu hum]
+25.0 +16.1 58 1020.6 1013.9
17 18.07 18 км 1/1 750 м
[Cu hum]
+25.0 +16.2 58 1020.1 1013.4
18 18.07 нст 2
{5}
18 км 1/1 750 м
[]
+24.7 +16.3 60 +28 +32 душно 1030.1 1013.0 +26.4
19 18.07
{5}
н/о н/о +23.1 +16.2 65 1019.9 1013.1
20 18.07 С 1 н/о н/о +21.9 +16.0 69 +26 +26 душно 1019.9 1013.1
21 18.07 С 1 н/о н/о +21.5 +16.0 71 +25 +25 комфорт 1020.0 1013.2
22 18.07 н/о н/о +21.4 +16.0 71 1020.2 1013.4
23 18.07 н/о н/о +21.6 +16.2 71 1020.5 1013.7
00 19.07 С 1 н/о н/о +21.3 +15.8 71 +25 +25 комфорт 1020.4 1013.6
01 19.07 СВ 1 н/о н/о +21.1 +15.4 70 +24 +24 комфорт 1019.9 1013.1
02 19.07 СВ 1 н/о н/о +21.2 +15.8 71 +24 +24 комфорт 1019.3 1012.5
03 19.07 С 1 н/о н/о +21.0 +16.0 73 +26 +26 душно 1018.7 1011.9
04 19.07 н/о н/о +20.7 +15.7 73 1018.5 1011.7
05 19.07 СВ 1 н/о н/о +20.6 +15.6 73 +25 +25 комфорт 1018.5 1011.7
06 19.07 СВ 1 н/о н/о +20.6 +15.7 73 +25 +25 комфорт 1019.1 1001.9 +20.4
07 19.07 СВ 1 н/о н/о +20.7 +15.8 74 +25 +25 комфорт 1019.3 1012.5
08 19.07 н/о н/о +22.9 +16.7 68 1019.4 1012.7
09 19.07 нст 1 18 км 1/1 600 м
[]
+23.6 +17.2 67 +27 +35 жарко 1030.1 1013.2
10 19.07 н/о н/о +24.0 +17.4 67 1020.0 1013.3
11 19.07 С 1 н/о н/о +24.8 +17.3 63 +29 +29 душно 1019.9 1013.2
12 19.07 нст 1 20 км 1/1 600 м
[Cu Sc]
+24.4 +17.1 64 +28 +49 душно 1030.1 1013.2
13 19.07 н/о н/о +25.8 +17.5 60 1019.6 1012.9
14 19.07 н/о н/о +25.0 +17.4 63 1019.4 1012.7
15 19.07 нст 3
{5}
20 км 6/6 600 м
[]
+26.4 +17.8 59 +31 +37 душно 1019.5 1012.8
16 19.07
{5}
20 км 5/5 750 м
[Cu Sc]
+25.6 +17.7 62 1019.3 1012.6
17 19.07 С 2 20 км 5/5 700 м
[Cu Sc]
+24.7 +18.2 67 +29 +33 душно 1019.2 1012.5
18 19.07 нст 2 20 км 8/8 600 м
[]
+24.6 +18.1 67 +29 +30 душно 1030.1 1012.4 +27.0
19 19.07 н/о н/о +23.8 +18.0 70 1018.9 1012.1
20 19.07 н/о н/о +23.4 +18.2 73 1019.2 1012.4
21 19.07 С 1 н/о н/о +22.9 +18.2 75 +29 +29 очень
душно
1019.7 1012.9
22 19.07 штиль 0 н/о н/о +22.4 +18.2 77 +28 +28 душно 1020.0 1013.3
23 19.07 штиль 0 н/о н/о +22.3 +18.3 78 +27 +27 душно 1020.2 1013.4
00 20.07 штиль 0 н/о н/о +21.9 +18.2 80 +27 +27 душно 1019.9 1013.1
01 20.07 н/о н/о +22.2 +18.1 78 1019.6 1012.8
02 20.07 н/о н/о +22.4 +17.7 75 1019.6 1012.8
03 20.07 штиль 0 н/о н/о +22.0 +17.5 76 +27 +27 душно 1019.3 1012.5
05 20.07 С 1 н/о н/о +21.8 +17.8 78 +26 +26 душно 1019.4 1012.6
06 20.07 нст 1 н/о н/о +21.4 +17.5 78 +25 +25 комфорт 1019.5 1002.0 +21.4
07 20.07 н/о н/о +22.0 +17.6 76 1020.0 1013.2
08 20.07 н/о н/о +23.0 +17.9 73 1020.6 1013.8
09 20.07 С 1 н/о н/о +23.3 +18.2 73 +29 +29 душно 1021.0 1014.2
10 20.07 н/о н/о +23.5 +18.1 72 1021.4 1014.6
11 20.07 н/о н/о +24.5 +17.6 65 1021.6 1014.8
12 20.07 С 2 н/о н/о +26.1 +18.2 62 +31 +31 очень
душно
1021.8 1015.1
13 20.07 -6
{6}
н/о н/о +27.0 +18.4 59 1021.5 1014.8
14 20.07 С 3-6
{6}
н/о н/о +27.2 +18.0 57 +32 +32 очень
душно
1021.5 1014.8
15 20.07 нст 3
{6}
н/о н/о +26.6 +18.0 59 +31 +31 душно 1021.5 1014.8
16 20.07
{5}
н/о н/о +26.1 +18.7 64 1021.4 1014.7
17 20.07 ЮЗ 3
{5}
н/о н/о +25.8 +18.5 64 +31 +31 очень
душно
1021.3 1014.6
18 20.07 ЮЗ 2 н/о н/о +25.4 +18.1 64 +30 +30 душно 1021.4 1014.6 +27.7
19 20.07 С 1 н/о н/о +23.6 +17.9 70 +28 +28 душно 1021.6 1014.8
20 20.07 С 1 н/о н/о +23.2 +18.3 74 +29 +29 душно 1021.8 1015.0
21 20.07 С 1 н/о н/о +23.1 +18.1 73 +29 +29 очень
душно
1022.3 1015.5
22 20.07 н/о н/о +22.9 +18.5 76 1023.0 1016.2
23 20.07 н/о н/о +22.8 +18.6 77 1023.2 1016.4
00 21.07 С 1 н/о н/о +22.3 +18.3 78 +27 +27 душно 1022.9 1016.1
01 21.07 С 1 н/о н/о +22.1 +18.5 80 +27 +27 душно 1022.3 1015.5
02 21.07 С 1 н/о н/о +22.0 +18.5 81 +27 +27 душно 1021.8 1015.0
03 21.07 н/о н/о +21.7 +17.7 78 1021.5 1014.7
04 21.07 штиль 0 н/о н/о +21.6 +17.3 77 +26 +26 душно 1021.5 1014.7
05 21.07 штиль 0 н/о н/о +21.6 +17.3 77 +26 +26 душно 1021.8 1015.0

 

Местоположение метеостанции Фуншал (Португалия): широта 32.63 долгота -16.90 высота над уровнем моря 56 м.

В архиве по умолчанию представлена погода в Фуншале за последнюю неделю. Архивные данные за месяц целиком и за предыдущие месяцы, начиная с января 2011 года, Вы можете получить, выбрав интересующий диапазон дат из раскрывающегося списка и нажав кнопку "Ввод!".


*Определитесь, кто Вы:
робот инопланетянин человек

Внимание! Время в таблицах - всемирное. Для получения местного времени необходимо прибавить поправку, которая равна 0 ч.

Смотрите также архив погоды в соседних городах и на ближайших метеорологических станциях:

Погода в Санта-Катарине (Португалия) (14 км)
Погода на Порту-Санту (Португалия) (71 км)
Погода на Пальме (Канарские Острова) (453 км)
Погода в Тасакорте (Канарские Острова) (459 км)
Погода на Тенерифе (Канарские Острова) (466 км)
Погода в Санта-Круз-де-Тенерифе (Канарские Острова) (469 км)
Погода в Пуэрто-де-ла-Крус (Канарские Острова) (469 км)
Погода в Тенерифе-Гуимаре (Канарские Острова) (482 км)
Погода в Обсерватории Izana (Канарские Острова) (483 км)
Погода в Сан-Себастьян-де-ла-Гомера (Канарские Острова) (505 км)

Пояснения к столбцам:

Ветер - указаны скорость ветра в м/с - средняя за 10 мин, порывы в срок и между сроками (в фигурных скобках) и направление, откуда дует ветер: С - северный, СВ - северо-восточный, В - восточный, ЮВ - юго-восточный, Ю - южный, ЮЗ - юго-западный, З - западный, СЗ - северо-западный.
Видимость - горизонтальная дальность видимости в метрах или километрах. При видимости от 1 до 10 км при отсутствии осадков обычно наблюдается дымка, при ухудшении видимости до 1 км и менее - туман. В сухую погоду видимость может ухудшаться дымом, пылью или мглою.
Явления - указаны атмосферные явления, наблюдавшиеся в срок или в последний час перед сроком; фигурными скобками обозначены явления, наблюдавшиеся между сроками (за 1-3 часа до срока); квадратными скобками обозначены град или гололедные отложения с указанием их диаметра в мм.
Облачность - указаны через наклонную черту общая и нижняя облачность в баллах и высота нижней границы облаков в метрах; квадратными скобками обозначены формы облаков: Ci - перистые, Cs - перисто-слоистые, Cc - перисто-кучевые, Ac - высококучевые, As - высокослоистые, Sc - слоисто-кучевые, Ns - слоисто-дождевые, Cu - кучевые, Cb - кучево-дождевые. Подробнее классификацию облаков см. в Атласе облаков (PDF).
T - Температура воздуха - температура, измеренная на высоте 2 м над землей.
Td - Температура точки росы - температура, при понижении до которой содержащийся в воздухе водяной пар достигнет насыщения.
f - Относительная влажность воздуха - влажноcть воздуха, измеренная на высоте 2 м над землей.
Te - Эффективная температура - температура, которую ощущает одетый по сезону человек в тени. Характеристика душности погоды. При расчете учитывается влияние влажности воздуха и скорости ветра на теплоощущения человека.
Tes - Эффективная температура на солнце - температура, которую ощущает человек, с поправкой на солнечный нагрев. Характеристика знойности погоды. Зависит от высоты солнца над горизонтом, облачности и скорости ветра. Ночью, в пасмурную погоду, а также при ветре 12 м/с и более поправка равна нулю.
P - Атмосферное давление - приведенное к уровню моря атмосферное давление.
Po - Атмосферное давление - измеренное на уровне метеостанции атмосферное давление.
Tmin - Минимальная температура - минимум температуры воздуха на высоте 2 м над землей.
Tmax - Максимальная температура - максимум температуры воздуха на высоте 2 м над землей.
R - Количество осадков - Количество выпавших осадков за период времени, мм. При наведении курсора мыши на число - период времени, за который выпало указанное количество осадков.
R24 - Количество осадков - Количество выпавших осадков за 24 часа, мм.
S - Снежный покров - Высота снежного покрова, см. При наведении курсора мыши на число - состояние снежного покрова и степень покрытия местности в баллах.